Time,TemperatureF,DewpointF,PressureIn,WindDirection,WindDirectionDegrees,WindSpeedMPH,WindSpeedGustMPH,Humidity,HourlyPrecipIn,Conditions,Clouds,dailyrainin,SoftwareType,DateUTC
2013-05-09 00:12:00,58.8,58.2,29.84,NW,315,0.0,-999.0,98,-99.99,,,0.00,Acu-Link.com,2013-05-09 04:12:00,
2013-05-09 00:27:00,59.0,58.4,29.82,NW,315,0.0,-999.0,98,-99.99,,,0.01,Acu-Link.com,2013-05-09 04:27:00,
2013-05-09 00:43:00,59.2,58.6,29.83,WSW,247,0.0,-999.0,98,-99.99,,,0.01,Acu-Link.com,2013-05-09 04:43:00,
2013-05-09 00:58:00,59.4,58.8,29.82,West,270,0.0,-999.0,98,-99.99,,,0.01,Acu-Link.com,2013-05-09 04:58:00,
2013-05-09 01:13:00,59.2,58.6,29.81,West,270,0.0,-999.0,98,-99.99,,,0.01,Acu-Link.com,2013-05-09 05:13:00,
2013-05-09 01:29:00,59.0,58.4,29.81,West,270,0.0,-999.0,98,-99.99,,,0.01,Acu-Link.com,2013-05-09 05:29:00,
2013-05-09 01:44:00,59.0,58.4,29.80,West,270,0.0,-999.0,98,-99.99,,,0.01,Acu-Link.com,2013-05-09 05:44:00,
2013-05-09 01:59:00,58.6,58.0,29.80,West,270,0.0,-999.0,98,-99.99,,,0.01,Acu-Link.com,2013-05-09 05:59:00,
2013-05-09 02:14:00,58.5,57.9,29.81,West,270,0.0,-999.0,98,-99.99,,,0.02,Acu-Link.com,2013-05-09 06:14:00,
2013-05-09 02:29:00,58.6,58.0,29.80,West,270,0.0,-999.0,98,-99.99,,,0.02,Acu-Link.com,2013-05-09 06:29:00,
2013-05-09 02:45:00,59.0,58.4,29.79,West,270,0.0,-999.0,98,-99.99,,,0.02,Acu-Link.com,2013-05-09 06:45:00,
2013-05-09 03:00:00,58.8,58.2,29.80,West,270,0.0,-999.0,98,-99.99,,,0.02,Acu-Link.com,2013-05-09 07:00:00,
2013-05-09 03:15:00,58.6,58.0,29.79,West,270,0.0,-999.0,98,-99.99,,,0.02,Acu-Link.com,2013-05-09 07:15:00,
2013-05-09 03:30:00,58.3,57.7,29.79,West,270,0.0,-999.0,98,-99.99,,,0.02,Acu-Link.com,2013-05-09 07:30:00,
2013-05-09 03:46:00,57.9,57.3,29.79,WNW,292,0.0,-999.0,98,-99.99,,,0.02,Acu-Link.com,2013-05-09 07:46:00,
2013-05-09 04:01:00,57.7,57.1,29.79,West,270,0.0,-999.0,98,-99.99,,,0.02,Acu-Link.com,2013-05-09 08:01:00,
2013-05-09 04:16:00,57.6,57.0,29.79,West,270,0.0,-999.0,98,-99.99,,,0.02,Acu-Link.com,2013-05-09 08:16:00,
2013-05-09 04:31:00,57.4,56.8,29.79,West,270,0.0,-999.0,98,-99.99,,,0.02,Acu-Link.com,2013-05-09 08:31:00,
2013-05-09 04:46:00,57.0,56.4,29.79,SW,225,0.0,-999.0,98,-99.99,,,0.02,Acu-Link.com,2013-05-09 08:46:00,
2013-05-09 05:01:00,56.8,56.2,29.79,West,270,0.0,-999.0,98,-99.99,,,0.02,Acu-Link.com,2013-05-09 09:01:00,
2013-05-09 05:17:00,56.8,56.2,29.79,WSW,247,0.0,-999.0,98,-99.99,,,0.02,Acu-Link.com,2013-05-09 09:17:00,
2013-05-09 05:32:00,56.7,56.1,29.78,WSW,247,0.0,-999.0,98,-99.99,,,0.10,Acu-Link.com,2013-05-09 09:32:00,
2013-05-09 05:47:00,56.5,55.9,29.79,SW,225,0.0,-999.0,98,-99.99,,,0.14,Acu-Link.com,2013-05-09 09:47:00,
2013-05-09 06:03:00,56.5,55.9,29.79,West,270,0.0,-999.0,98,-99.99,,,0.14,Acu-Link.com,2013-05-09 10:03:00,
2013-05-09 06:18:00,56.3,55.7,29.80,West,270,0.0,-999.0,98,-99.99,,,0.14,Acu-Link.com,2013-05-09 10:18:00,
2013-05-09 06:33:00,56.3,55.7,29.80,West,270,0.0,-999.0,98,-99.99,,,0.14,Acu-Link.com,2013-05-09 10:33:00,
2013-05-09 06:49:00,56.5,55.9,29.81,West,270,0.0,-999.0,98,-99.99,,,0.14,Acu-Link.com,2013-05-09 10:49:00,
2013-05-09 07:04:00,56.8,56.2,29.80,West,270,0.0,-999.0,98,-99.99,,,0.14,Acu-Link.com,2013-05-09 11:04:00,
2013-05-09 07:19:00,57.0,56.4,29.81,West,270,0.0,-999.0,98,-99.99,,,0.14,Acu-Link.com,2013-05-09 11:19:00,
2013-05-09 07:34:00,57.4,56.8,29.81,West,270,0.0,-999.0,98,-99.99,,,0.14,Acu-Link.com,2013-05-09 11:34:00,
2013-05-09 07:50:00,57.9,57.3,29.81,West,270,0.0,-999.0,98,-99.99,,,0.14,Acu-Link.com,2013-05-09 11:50:00,
2013-05-09 08:05:00,58.6,58.0,29.83,West,270,0.0,-999.0,98,-99.99,,,0.15,Acu-Link.com,2013-05-09 12:05:00,
2013-05-09 08:20:00,58.8,58.2,29.82,NW,315,0.0,-999.0,98,-99.99,,,0.15,Acu-Link.com,2013-05-09 12:20:00,
2013-05-09 08:36:00,59.4,58.8,29.82,WSW,247,0.0,-999.0,98,-99.99,,,0.15,Acu-Link.com,2013-05-09 12:36:00,
2013-05-09 08:51:00,60.1,59.5,29.83,SSW,202,0.0,-999.0,98,-99.99,,,0.15,Acu-Link.com,2013-05-09 12:51:00,
2013-05-09 09:06:00,61.5,60.9,29.83,West,270,0.0,-999.0,98,-99.99,,,0.15,Acu-Link.com,2013-05-09 13:06:00,
2013-05-09 09:21:00,62.2,61.6,29.83,West,270,0.0,-999.0,98,-99.99,,,0.15,Acu-Link.com,2013-05-09 13:21:00,
2013-05-09 09:36:00,63.1,62.2,29.83,SSE,157,0.0,-999.0,97,-99.99,,,0.15,Acu-Link.com,2013-05-09 13:36:00,
2013-05-09 09:52:00,63.9,62.1,29.83,SW,225,0.0,-999.0,94,-99.99,,,0.15,Acu-Link.com,2013-05-09 13:52:00,
2013-05-09 10:07:00,65.5,64.0,29.83,West,270,0.0,-999.0,95,-99.99,,,0.15,Acu-Link.com,2013-05-09 14:07:00,
2013-05-09 10:22:00,64.9,63.4,29.83,WNW,292,0.0,-999.0,95,-99.99,,,0.16,Acu-Link.com,2013-05-09 14:22:00,
2013-05-09 10:38:00,63.3,62.7,29.83,WNW,292,0.0,-999.0,98,-99.99,,,0.17,Acu-Link.com,2013-05-09 14:38:00,
2013-05-09 10:53:00,64.9,63.1,29.83,West,270,0.0,-999.0,94,-99.99,,,0.18,Acu-Link.com,2013-05-09 14:53:00,
2013-05-09 11:08:00,63.1,62.2,29.83,WSW,247,0.0,-999.0,97,-99.99,,,0.19,Acu-Link.com,2013-05-09 15:08:00,
2013-05-09 11:24:00,64.4,63.2,29.84,WNW,292,1.1,-999.0,96,-99.99,,,0.19,Acu-Link.com,2013-05-09 15:24:00,
2013-05-09 11:39:00,68.5,65.8,29.83,North,0,0.0,-999.0,91,-99.99,,,0.19,Acu-Link.com,2013-05-09 15:39:00,
2013-05-09 11:54:00,66.2,63.5,29.83,West,270,2.2,-999.0,91,-99.99,,,0.19,Acu-Link.com,2013-05-09 15:54:00,
2013-05-09 12:09:00,68.7,65.0,29.83,ENE,67,1.7,-999.0,88,-99.99,,,0.19,Acu-Link.com,2013-05-09 16:09:00,
2013-05-09 12:24:00,68.5,64.8,29.83,South,180,0.0,-999.0,88,-99.99,,,0.19,Acu-Link.com,2013-05-09 16:24:00,
2013-05-09 12:40:00,68.4,64.7,29.84,South,180,0.0,-999.0,88,-99.99,,,0.19,Acu-Link.com,2013-05-09 16:40:00,
2013-05-09 12:55:00,66.6,63.9,29.83,SSE,157,2.2,-999.0,91,-99.99,,,0.19,Acu-Link.com,2013-05-09 16:55:00,
2013-05-09 13:10:00,66.6,63.3,29.83,SSE,157,2.2,-999.0,89,-99.99,,,0.19,Acu-Link.com,2013-05-09 17:10:00,
2013-05-09 13:25:00,66.4,63.7,29.85,ESE,112,0.0,-999.0,91,-99.99,,,0.19,Acu-Link.com,2013-05-09 17:25:00,
2013-05-09 13:41:00,64.9,62.8,29.83,West,270,3.2,-999.0,93,-99.99,,,0.21,Acu-Link.com,2013-05-09 17:41:00,
2013-05-09 13:56:00,66.0,63.9,29.84,South,180,1.7,-999.0,93,-99.99,,,0.21,Acu-Link.com,2013-05-09 17:56:00,
2013-05-09 14:11:00,65.1,62.7,29.83,ESE,112,1.7,-999.0,92,-99.99,,,0.22,Acu-Link.com,2013-05-09 18:11:00,
2013-05-09 14:27:00,63.3,61.5,29.84,SSW,202,2.7,-999.0,94,-99.99,,,0.22,Acu-Link.com,2013-05-09 18:27:00,
2013-05-09 14:42:00,63.0,61.2,29.84,ESE,112,2.7,-999.0,94,-99.99,,,0.22,Acu-Link.com,2013-05-09 18:42:00,
2013-05-09 14:57:00,63.7,61.6,29.84,SSE,157,4.2,-999.0,93,-99.99,,,0.22,Acu-Link.com,2013-05-09 18:57:00,
2013-05-09 15:12:00,64.8,62.1,29.84,West,270,3.2,-999.0,91,-99.99,,,0.22,Acu-Link.com,2013-05-09 19:12:00,
2013-05-09 15:27:00,65.3,62.9,29.83,West,270,1.1,-999.0,92,-99.99,,,0.22,Acu-Link.com,2013-05-09 19:27:00,
2013-05-09 15:43:00,67.1,63.4,29.83,SSE,157,2.7,-999.0,88,-99.99,,,0.22,Acu-Link.com,2013-05-09 19:43:00,
2013-05-09 15:58:00,67.5,62.8,29.84,ESE,112,3.7,-999.0,85,-99.99,,,0.22,Acu-Link.com,2013-05-09 19:58:00,
2013-05-09 16:13:00,64.2,60.9,29.84,SSE,157,2.7,-999.0,89,-99.99,,,0.22,Acu-Link.com,2013-05-09 20:13:00,
2013-05-09 16:29:00,66.7,62.7,29.83,SSE,157,1.7,-999.0,87,-99.99,,,0.22,Acu-Link.com,2013-05-09 20:29:00,
2013-05-09 16:44:00,67.1,63.1,29.83,ESE,112,1.7,-999.0,87,-99.99,,,0.22,Acu-Link.com,2013-05-09 20:44:00,
2013-05-09 16:59:00,70.5,64.4,29.83,SSE,157,1.7,-999.0,81,-99.99,,,0.22,Acu-Link.com,2013-05-09 20:59:00,
2013-05-09 17:14:00,69.1,63.7,29.82,SSE,157,2.2,-999.0,83,-99.99,,,0.22,Acu-Link.com,2013-05-09 21:14:00,
2013-05-09 17:29:00,68.7,63.0,29.83,SW,225,2.2,-999.0,82,-99.99,,,0.22,Acu-Link.com,2013-05-09 21:29:00,
2013-05-09 17:44:00,69.8,62.3,29.82,SE,135,4.7,-999.0,77,-99.99,,,0.22,Acu-Link.com,2013-05-09 21:44:00,
2013-05-09 18:00:00,69.3,62.1,29.82,SSW,202,3.2,-999.0,78,-99.99,,,0.22,Acu-Link.com,2013-05-09 22:00:00,
2013-05-09 18:15:00,68.9,61.4,29.83,NE,45,2.2,-999.0,77,-99.99,,,0.22,Acu-Link.com,2013-05-09 22:15:00,
2013-05-09 18:30:00,68.2,60.7,29.82,South,180,1.7,-999.0,77,-99.99,,,0.22,Acu-Link.com,2013-05-09 22:30:00,
2013-05-09 18:46:00,68.0,61.2,29.84,SSE,157,0.0,-999.0,79,-99.99,,,0.22,Acu-Link.com,2013-05-09 22:46:00,
2013-05-09 19:01:00,66.9,59.8,29.83,SSW,202,0.0,-999.0,78,-99.99,,,0.22,Acu-Link.com,2013-05-09 23:01:00,
2013-05-09 19:16:00,66.0,59.6,29.83,SSE,157,0.0,-999.0,80,-99.99,,,0.22,Acu-Link.com,2013-05-09 23:16:00,
2013-05-09 19:32:00,64.6,59.0,29.83,South,180,0.0,-999.0,82,-99.99,,,0.22,Acu-Link.com,2013-05-09 23:32:00,
2013-05-09 19:47:00,63.5,58.2,29.83,East,90,0.0,-999.0,83,-99.99,,,0.22,Acu-Link.com,2013-05-09 23:47:00,
2013-05-09 20:02:00,62.4,57.5,29.83,South,180,0.0,-999.0,84,-99.99,,,0.22,Acu-Link.com,2013-05-10 00:02:00,
2013-05-09 20:17:00,60.8,56.6,29.83,SSE,157,0.0,-999.0,86,-99.99,,,0.22,Acu-Link.com,2013-05-10 00:17:00,
2013-05-09 20:33:00,59.5,55.6,29.84,ESE,112,0.0,-999.0,87,-99.99,,,0.22,Acu-Link.com,2013-05-10 00:33:00,
2013-05-09 20:48:00,58.5,55.0,29.84,SSE,157,0.0,-999.0,88,-99.99,,,0.22,Acu-Link.com,2013-05-10 00:48:00,
2013-05-09 21:03:00,57.6,54.7,29.85,SE,135,0.0,-999.0,90,-99.99,,,0.22,Acu-Link.com,2013-05-10 01:03:00,
2013-05-09 21:19:00,57.0,54.4,29.85,SSE,157,0.0,-999.0,91,-99.99,,,0.22,Acu-Link.com,2013-05-10 01:19:00,
2013-05-09 21:34:00,56.3,54.0,29.86,South,180,0.0,-999.0,92,-99.99,,,0.22,Acu-Link.com,2013-05-10 01:34:00,
2013-05-09 21:49:00,55.8,53.8,29.87,SE,135,0.0,-999.0,93,-99.99,,,0.22,Acu-Link.com,2013-05-10 01:49:00,
2013-05-09 22:04:00,55.0,53.0,29.86,ESE,112,0.0,-999.0,93,-99.99,,,0.22,Acu-Link.com,2013-05-10 02:04:00,
2013-05-09 22:20:00,54.9,52.9,29.86,SSE,157,0.0,-999.0,93,-99.99,,,0.22,Acu-Link.com,2013-05-10 02:20:00,
2013-05-09 22:35:00,54.1,52.1,29.87,SSE,157,0.0,-999.0,93,-99.99,,,0.22,Acu-Link.com,2013-05-10 02:35:00,
2013-05-09 22:50:00,53.8,52.1,29.86,SSE,157,0.0,-999.0,94,-99.99,,,0.22,Acu-Link.com,2013-05-10 02:50:00,
2013-05-09 23:06:00,53.4,51.7,29.86,SSE,157,0.0,-999.0,94,-99.99,,,0.22,Acu-Link.com,2013-05-10 03:06:00,
2013-05-09 23:21:00,53.2,52.6,29.85,South,180,0.0,-999.0,98,-99.99,,,0.22,Acu-Link.com,2013-05-10 03:21:00,
2013-05-09 23:36:00,52.9,52.4,29.85,ESE,112,1.7,-999.0,98,-99.99,,,0.22,Acu-Link.com,2013-05-10 03:36:00,
2013-05-09 23:52:00,52.7,52.2,29.85,ESE,112,0.0,-999.0,98,-99.99,,,0.22,Acu-Link.com,2013-05-10 03:52:00,